This demonstration page uses our WeatherBlox Daily Observations layout. Learn more.

38.88101, -77.10428

Hourly Observations for August 11, 2018

Temp ( °F °C ) Dew Point ( °F °C ) Humidity (%) Winds ( mph kmh ) Pressure ( in mb ) Visibility ( mi km ) Precip ( " mm )
12:52 am 00:52 Mostly Cloudy 80 26.7 72 22.2 76 76 SSW 3 6 29.91 1013 10 16.0934 0 0
1:52 am 01:52 Mostly Cloudy 79 26.1 72 22.2 79 79 S 5 7 29.9 1013 10 16.0934 0 0
2:52 am 02:52 Cloudy 79 26.1 73 22.8 82 82 S 5 7 29.9 1012 10 16.0934 0 0
3:52 am 03:52 Cloudy 79 26.1 73 22.8 82 82 S 3 6 29.9 1012 10 16.0934 0 0
4:52 am 04:52 Cloudy 78 25.6 73 22.8 85 85 SSE 5 7 29.88 1012 10 16.0934 0 0
5:52 am 05:52 Cloudy 78 25.6 73 22.8 85 85 Calm 29.89 1012 10 16.0934 0 0
6:52 am 06:52 Cloudy 79 26.1 71 21.7 77 77 NNW 5 7 29.9 1013 10 16.0934 0 0
7:52 am 07:52 Mostly Cloudy 80 26.7 68 20 67 67 N 3 6 29.91 1013 10 16.0934 0 0
8:52 am 08:52 Mostly Cloudy 82 27.8 68 20 63 63 Calm 29.91 1013 10 16.0934 0 0
9:52 am 09:52 Cloudy 82 27.8 69 20.6 65 65 VRB 3 6 29.92 1013 10 16.0934 0 0
10:52 am 10:52 Cloudy 83 28.3 69 20.6 63 63 Calm 29.93 1014 10 16.0934 0 0
11:52 am 11:52 Cloudy 84 28.9 70 21.1 63 63 SSE 5 7 29.94 1014 10 16.0934 0 0
12:52 pm 12:52 Cloudy 86 30 73 22.8 65 65 SSE 9 15 29.93 1014 10 16.0934 0 0
1:52 pm 13:52 Mostly Cloudy 87 30.6 72 22.2 61 61 SSE 12 19 29.91 1013 10 16.0934 0 0
2:52 pm 14:52 Mostly Cloudy 90 32.2 70 21.1 52 52 WSW 10 17 29.89 1012 10 16.0934 0 0
3:52 pm 15:52 Mostly Cloudy 89 31.7 70 21.1 53 53 SSW 9 15 29.87 1012 10 16.0934 0 0
4:52 pm 16:52 Mostly Cloudy 87 30.6 70 21.1 57 57 NNW 13 20 29.88 1012 10 16.0934 0 0
5:00 pm 17:00 Mostly Cloudy 87 30.6 69 20.6 55 55 NW 14 22 29.88 1012 10 16.0934 0 0
5:32 pm 17:32 Cloudy with Light Rain 85 29.4 65 18.3 51 51 WNW 10 17 29.88 1012 10 16.0934 0 0.0254
5:52 pm 17:52 Cloudy with Light Rain 83 28.3 70 21.1 65 65 Calm 29.88 1012 10 16.0934 0.01 0.254
6:09 pm 18:09 Cloudy 83 28.3 69 20.6 63 63 S 5 7 29.88 1012 10 16.0934 0 0.0254
6:52 pm 18:52 Mostly Cloudy 82 27.8 71 21.7 69 69 S 3 6 29.9 1013 10 16.0934 0 0.0254
7:52 pm 19:52 Mostly Cloudy 83 28.3 72 22.2 70 70 Calm 29.91 1013 10 16.0934 0 0
8:05 pm 20:05 Mostly Cloudy with Nearby Thunderstorms 81 27.2 73 22.8 77 77 Calm 29.91 1013 10 16.0934 0 0
8:20 pm 20:20 Mostly Cloudy 82 27.8 73 22.8 74 74 Calm 29.91 1013 9 14.48406 0 0
8:26 pm 20:26 Mostly Cloudy with Thunderstorms 82 27.8 73 22.8 74 74 Calm 29.91 1013 9 14.48406 0 0
8:30 pm 20:30 Mostly Cloudy with Thunderstorms 82 27.8 73 22.8 74 74 Calm 29.91 1013 10 16.0934 0 0
8:52 pm 20:52 Partly Cloudy with Nearby Thunderstorms 81 27.2 67 19.4 62 62 NNW 6 9 29.91 1013 10 16.0934 0 0
9:10 pm 21:10 Partly Cloudy with Thunderstorms 81 27.2 68 20 65 65 NW 8 13 29.91 1013 10 16.0934 0 0
9:25 pm 21:25 Partly Cloudy with Nearby Thunderstorms 81 27.2 68 20 65 65 NNW 7 11 29.94 1014 10 16.0934 0 0
9:41 pm 21:41 Partly Cloudy 81 27.2 68 20 65 65 NNW 9 15 29.94 1014 10 16.0934 0 0
9:52 pm 21:52 Partly Cloudy 80 26.7 69 20.6 69 69 N 8 13 29.94 1014 10 16.0934 0 0
10:52 pm 22:52 Partly Cloudy 78 25.6 70 21.1 76 76 NE 7 11 29.96 1014 10 16.0934 0 0
11:52 pm 23:52 Mostly Cloudy 77 25 71 21.7 82 82 Calm 29.96 1015 10 16.0934 0 0

Powered by AerisWeather